Weather History for Charleston, WV

Change the Weather History Date:

Friday, May 3, 2013

  Actual Average Record
Temperature  
Mean Temperature 63 °F 61 °F  
Max Temperature 76 °F 72 °F 92 °F (1942)
Min Temperature 50 °F 49 °F 31 °F (2005)
Degree Days  
Heating Degree Days 2 6  
Month to date heating degree days 2 18  
Since 1 July heating degree days 4418 4366  
Cooling Degree Days 0 1  
Month to date cooling degree days 6 3  
Year to date cooling degree days 45 35  
Growing Degree Days 12 (Base 50)    
Moisture  
Dew Point 40 °F    
Average Humidity 52    
Maximum Humidity 83    
Minimum Humidity 20    
Precipitation  
Precipitation 0.00 in 0.13 in 1.05 in (1983)
Month to date precipitation 0.00 0.40  
Year to date precipitation 10.87 13.74  
Snow  
Snow 0.00 in - - ()
Month to date snowfall 0.0  
Since 1 September snowfall 25.3  
Snow Depth 0.00 in    
Sea Level Pressure  
Sea Level Pressure 30.13 in    
Wind  
Wind Speed 9 mph (SE)    
Max Wind Speed 20 mph    
Max Gust Speed 26 mph    
Visibility 10 miles    
Events      
T = Trace of Precipitation, MM = Missing Value Source: NWS Daily Summary

Daily Weather History Graph

Daily Weather History Graph

Search for Another Location

Airport:

Trip Planner

Search our weather history database for the weather conditions in past years. The results will help you decide how hot, cold, wet, or windy it might be!

Date:

Astronomy

May. 03, 2013 Rise Set
Actual Time 6:26 AM EDT 8:20 PM EDT
Civil Twilight 5:58 AM EDT 8:48 PM EDT
Nautical Twilight 5:23 AM EDT 9:23 PM EDT
Astronomical Twilight 4:46 AM EDT 10:01 PM EDT
Moon 2:45 AM EDT (5/3) 2:17 PM EDT (5/3)
Length of Visible Light 14h 50m
Length of Day
13h 53m
Last Quarter, 37% of the Moon is Illuminated
May 3
Last Quarter
May 9
New
May 18
First Quarter
May 25
Full
May 31
Last Quarter

Hourly Weather History & Observations

Time (EDT) Temp. Dew Point Humidity Pressure Visibility Wind Dir Wind Speed Gust Speed Precip Events Conditions
12:54 AM 64.9 °F 46.9 °F 52% 30.17 in 10.0 mi SE 6.9 mph - N/A   Clear
1:54 AM 63.0 °F 46.9 °F 56% 30.17 in 10.0 mi SE 6.9 mph - N/A   Clear
2:54 AM 61.0 °F 46.0 °F 58% 30.15 in 10.0 mi ESE 5.8 mph - N/A   Clear
3:54 AM 59.0 °F 46.0 °F 62% 30.15 in 10.0 mi Calm Calm - N/A   Clear
4:54 AM 57.0 °F 45.0 °F 64% 30.15 in 10.0 mi Calm Calm - N/A   Clear
5:54 AM 52.0 °F 46.0 °F 80% 30.16 in 10.0 mi Calm Calm - N/A   Clear
6:54 AM 51.1 °F 45.0 °F 80% 30.16 in 10.0 mi Calm Calm - N/A   Partly Cloudy
7:54 AM 53.1 °F 46.9 °F 80% 30.17 in 10.0 mi Calm Calm - N/A   Clear
8:54 AM 59.0 °F 42.1 °F 53% 30.17 in 10.0 mi SE 4.6 mph - N/A   Clear
9:54 AM 63.0 °F 41.0 °F 45% 30.17 in 10.0 mi ESE 10.4 mph - N/A   Clear
10:54 AM 68.0 °F 37.0 °F 32% 30.15 in 10.0 mi ESE 10.4 mph - N/A   Clear
11:54 AM 70.0 °F 35.1 °F 28% 30.14 in 10.0 mi ESE 10.4 mph 17.3 mph N/A   Clear
12:54 PM 73.0 °F 33.1 °F 23% 30.12 in 10.0 mi SSE 18.4 mph 23.0 mph N/A   Partly Cloudy
1:54 PM 75.9 °F 33.1 °F 21% 30.10 in 10.0 mi ESE 11.5 mph 20.7 mph N/A   Clear
2:54 PM 75.9 °F 33.1 °F 21% 30.09 in 10.0 mi SSE 12.7 mph 18.4 mph N/A   Clear
3:54 PM 73.9 °F 30.0 °F 20% 30.08 in 10.0 mi SE 13.8 mph 20.7 mph N/A   Partly Cloudy
4:54 PM 73.9 °F 30.0 °F 20% 30.07 in 10.0 mi SSE 17.3 mph 24.2 mph N/A   Partly Cloudy
5:54 PM 72.0 °F 30.9 °F 22% 30.09 in 10.0 mi SSE 13.8 mph 19.6 mph N/A   Partly Cloudy
6:54 PM 70.0 °F 34.0 °F 27% 30.09 in 10.0 mi SE 19.6 mph 23.0 mph N/A   Partly Cloudy
7:54 PM 68.0 °F 39.2 °F 35% 30.11 in 10.0 mi SE 15.0 mph 26.5 mph N/A   Partly Cloudy
8:54 PM 66.0 °F 41.0 °F 40% 30.11 in 10.0 mi ESE 12.7 mph 21.9 mph N/A   Clear
9:54 PM 64.0 °F 41.0 °F 43% 30.12 in 10.0 mi SE 5.8 mph - N/A   Clear
10:54 PM 63.0 °F 42.1 °F 46% 30.11 in 10.0 mi ESE 5.8 mph - N/A   Clear
11:54 PM 62.1 °F 42.1 °F 48% 30.09 in 10.0 mi ESE 6.9 mph - N/A   Clear